User: anonymous   Login
Location: Natural Bridges National Monument
(37.6093°N, 109.9767°W)
Time: 17:03:08
(UTC-06:00)
Language:

USA 32 - Orbit

View from above orbital plane
View from above orbital plane
View from above satellite
View from above satellite

Ground track
Ground track

The orbit data is extracted from the following two-line orbital elements,

1 19460U 88078A   18102.97762588 0.00000040  00000-0  14509-4 0    05
2 19460  84.9908  48.0227 0004871 293.8956  66.1042 14.33441998    00
Epoch (UTC): 12 April 2018 23:27:46
Eccentricity: 0.0004871
inclination: 84.9908°
perigee height: 777 km
apogee height: 784 km
right ascension of ascending node: 48.0227°
argument of perigee: 293.8956°
revolutions per day: 14.33441998
mean anomaly at epoch: 66.1042°
orbit number at epoch: 0

The dashed part of the orbit path shows where the satellite is in the earth's shadow,  

DLR